Home > Time Zones > World Clock > Weather > India > Bundi > Past weeks

Flag for India Weather past 2 weeks in Bundi, Rajasthan, India

Now
108 °F

Haze.


Feels Like: 100 °F
Forecast: 85 / 110 °F
Wind: 9 mph from West

Location: Jaipur / Sanganer

Current Time: May 6, 2015 at 5:10:30 PM

Latest Report: May 6, 2015 at 4:00 PM


Visibility: 2 mi

Pressure: 29.68 "Hg

Humidity: 4%

Dew point: 19 °F

Location of BundiLocation

Historic Weather in Bundi — Graph

°F

Bundi temperature yesterday

Maximum temperature yesterday: 106 °F (at 2:00 PM)
Minimum temperature yesterday: 79 °F (at 5:30 AM)
Average temperature yesterday: 94 °F

Past Weeks' High & Low Weather Summary

 TemperatureHumidityPressure
High109 °F (Apr 30, 4:00 PM)58% (Apr 27, 6:00 AM)29.89 "Hg (Apr 27, 6:00 AM)
Low75 °F (Apr 24, 5:00 AM)4% (Apr 30, 4:00 PM)29.65 "Hg (Apr 22, 4:30 PM)
Average92 °F21%29.76 "Hg
* Reported Apr 21 3:00 PM — May 6 3:00 PM, Bundi, Weather by CustomWeather, © 2015

Note: Actual official high and low records may vary slightly from our data, if they occured in-between our weather recording intervals... More about our weather records

Advertising

Bundi weather history for previous 24 hours

 ConditionsComfort  
Time TempWeatherWind HumidityBarometerVisibility
3:00 PM
Wed, May 6
108 °FHaze.8 mph5%29.71 "Hg3 mi
2:00 PM108 °FHaze.8 mph4%29.71 "Hg3 mi
1:30 PM108 °FHaze.8 mph5%29.74 "Hg3 mi
1:00 PM106 °FHaze.8 mph6%29.74 "Hg3 mi
12:00 PM104 °FHaze.9 mph9%29.77 "Hg2 mi
11:00 AM100 °FHaze.8 mph10%29.80 "Hg2 mi
10:00 AM97 °FHaze.10 mph13%29.80 "Hg2 mi
9:00 AM93 °FHaze.9 mph14%29.80 "Hg2 mi
8:30 AM91 °FHaze.8 mph15%29.77 "Hg2 mi
8:00 AM90 °FHaze.7 mph16%29.77 "Hg2 mi
7:30 AM88 °FHaze.6 mph18%29.77 "Hg2 mi
7:00 AM84 °FHaze.6 mph22%29.74 "Hg2 mi
6:00 AM86 °FHaze.5 mph18%29.74 "Hg2 mi
5:30 AM86 °FHaze.5 mph17%29.74 "Hg2 mi
4:00 AM86 °FHaze.5 mph17%29.71 "Hg1 mi
3:00 AM84 °FHaze.3 mph18%29.74 "Hg1 mi
2:00 AM82 °FHaze.6 mph20%29.74 "Hg1 mi
1:00 AM88 °FHaze.2 mph16%29.74 "Hg1 mi
12:00 AM90 °FHaze.3 mph18%29.74 "Hg1 mi
11:00 PM
Tue, May 5
90 °FHaze.2 mph20%29.74 "Hg1 mi
10:00 PM90 °FHaze.2 mph22%29.74 "Hg1 mi
9:00 PM91 °FHaze.3 mph20%29.74 "Hg1 mi
7:00 PM100 °FHaze.3 mph7%29.71 "Hg2 mi
6:00 PM104 °FHaze.5 mph6%29.71 "Hg2 mi
5:00 PM104 °FHaze.6 mph6%29.71 "Hg2 mi
Weather by CustomWeather, © 2015

See weather overviewHow to use our weather pages